| time (UTC) | temp F | wind direction | speed MPH | gust MPH | rain 1hr in | rain 24hr in | rain mn in | humidity % | barometer mb |
| 20260505095921 | 51 | 178 | 0.0 | 0.0 | 0.00 | 0.00 | 0.00 | 90 | 1032.8 |
| 20260505095419 | 51 | 178 | 0.0 | 0.0 | 0.00 | 0.00 | 0.00 | 90 | 1032.6 |
| 20260505094914 | 51 | 178 | 0.0 | 0.0 | 0.00 | 0.00 | 0.00 | 90 | 1032.6 |
| 20260505094412 | 51 | 178 | 0.0 | 0.0 | 0.00 | 0.00 | 0.00 | 89 | 1032.6 |
| 20260505093907 | 51 | 178 | 0.0 | 0.0 | 0.00 | 0.00 | 0.00 | 89 | 1032.4 |
| 20260505093404 | 51 | 178 | 0.0 | 0.0 | 0.00 | 0.00 | 0.00 | 88 | 1032.3 |
| 20260505092902 | 51 | 178 | 0.0 | 0.0 | 0.00 | 0.00 | 0.00 | 88 | 1032.6 |
| 20260505092400 | 51 | 178 | 0.0 | 0.0 | 0.00 | 0.00 | 0.00 | 88 | 1032.4 |
| 20260505091857 | 52 | 178 | 0.0 | 0.0 | 0.00 | 0.00 | 0.00 | 87 | 1032.4 |
| 20260505091355 | 52 | 178 | 0.0 | 0.0 | 0.00 | 0.00 | 0.00 | 87 | 1032.6 |
| 20260505090852 | 52 | 178 | 0.0 | 0.0 | 0.00 | 0.00 | 0.00 | 87 | 1032.5 |
| 20260505090350 | 52 | 178 | 0.0 | 0.0 | 0.00 | 0.00 | 0.00 | 86 | 1032.3 |
| 20260505085847 | 52 | 178 | 0.0 | 0.0 | 0.00 | 0.00 | 0.00 | 86 | 1032.4 |
| 20260505085345 | 53 | 178 | 0.0 | 0.0 | 0.00 | 0.00 | 0.00 | 85 | 1032.2 |
| 20260505084843 | 53 | 178 | 0.0 | 0.0 | 0.00 | 0.00 | 0.00 | 85 | 1032.5 |
| 20260505084341 | 53 | 178 | 0.0 | 0.0 | 0.00 | 0.00 | 0.00 | 84 | 1032.1 |
| 20260505083838 | 53 | 178 | 0.0 | 0.0 | 0.00 | 0.00 | 0.00 | 84 | 1032.3 |
| 20260505083336 | 53 | 178 | 0.0 | 0.0 | 0.00 | 0.00 | 0.00 | 83 | 1032.3 |
| 20260505082832 | 54 | 178 | 0.0 | 0.0 | 0.00 | 0.00 | 0.00 | 83 | 1032.2 |
| 20260505082328 | 54 | 178 | 0.0 | 0.0 | 0.00 | 0.00 | 0.00 | 82 | 1032.3 |
| 20260505081825 | 54 | 178 | 0.0 | 0.0 | 0.00 | 0.00 | 0.00 | 82 | 1032.1 |
| 20260505081321 | 54 | 178 | 0.0 | 0.0 | 0.00 | 0.00 | 0.00 | 81 | 1032.2 |
| 20260505080818 | 54 | 178 | 0.0 | 0.0 | 0.00 | 0.00 | 0.00 | 81 | 1032.1 |
| 20260505080314 | 54 | 178 | 0.0 | 0.0 | 0.00 | 0.00 | 0.00 | 81 | 1032.1 |
| 20260505075810 | 55 | 178 | 0.0 | 0.0 | 0.00 | 0.00 | 0.00 | 81 | 1032.0 |
| 20260505075307 | 55 | 178 | 0.0 | 0.0 | 0.00 | 0.00 | 0.00 | 80 | 1031.9 |
| 20260505074804 | 55 | 178 | 0.0 | 0.0 | 0.00 | 0.00 | 0.00 | 80 | 1032.0 |
| 20260505074301 | 55 | 178 | 0.0 | 0.0 | 0.00 | 0.00 | 0.00 | 80 | 1031.7 |
| 20260505073759 | 55 | 178 | 0.0 | 0.0 | 0.00 | 0.00 | 0.00 | 79 | 1031.9 |
| 20260505073257 | 55 | 178 | 0.0 | 0.0 | 0.00 | 0.00 | 0.00 | 79 | 1032.0 |
| 20260505072753 | 55 | 178 | 0.0 | 0.0 | 0.00 | 0.00 | 0.00 | 79 | 1032.1 |
| 20260505072249 | 55 | 178 | 0.0 | 0.0 | 0.00 | 0.00 | 0.00 | 78 | 1032.1 |
| 20260505071745 | 56 | 178 | 0.0 | 0.0 | 0.00 | 0.00 | 0.00 | 78 | 1032.0 |
| 20260505071242 | 56 | 178 | 0.0 | 0.0 | 0.00 | 0.00 | 0.00 | 77 | 1031.9 |
| 20260505070740 | 56 | 178 | 0.0 | 0.0 | 0.00 | 0.00 | 0.00 | 77 | 1031.9 |
| 20260505070236 | 56 | 178 | 1.0 | 1.0 | 0.00 | 0.00 | 0.00 | 76 | 1031.9 |
| 20260505065731 | 57 | 178 | 0.0 | 0.0 | 0.00 | 0.00 | 0.00 | 75 | 1032.0 |
| 20260505065229 | 57 | 178 | 1.0 | 1.0 | 0.00 | 0.00 | 0.00 | 74 | 1031.9 |
| 20260505064725 | 57 | 179 | 0.0 | 1.0 | 0.00 | 0.00 | 0.00 | 74 | 1032.0 |
| 20260505064223 | 57 | 179 | 0.0 | 0.0 | 0.00 | 0.00 | 0.00 | 73 | 1032.1 |
| 20260505063721 | 58 | 179 | 0.0 | 0.0 | 0.00 | 0.00 | 0.00 | 72 | 1031.9 |
| 20260505063217 | 58 | 179 | 0.0 | 0.0 | 0.00 | 0.00 | 0.00 | 72 | 1031.9 |
| 20260505062713 | 58 | 179 | 0.0 | 0.0 | 0.00 | 0.00 | 0.00 | 72 | 1031.8 |
| 20260505062211 | 58 | 179 | 0.0 | 0.0 | 0.00 | 0.00 | 0.00 | 72 | 1031.7 |
| 20260505061708 | 59 | 179 | 0.0 | 0.0 | 0.00 | 0.00 | 0.00 | 72 | 1031.8 |
| 20260505061206 | 59 | 179 | 0.0 | 0.0 | 0.00 | 0.00 | 0.00 | 71 | 1031.9 |
| 20260505060703 | 59 | 179 | 0.0 | 0.0 | 0.00 | 0.00 | 0.00 | 70 | 1031.7 |
| 20260505060159 | 59 | 179 | 0.0 | 0.0 | 0.00 | 0.00 | 0.00 | 69 | 1031.8 |
| 20260505055655 | 60 | 188 | 0.0 | 0.0 | 0.00 | 0.00 | 0.00 | 69 | 1031.9 |
| 20260505055152 | 60 | 188 | 0.0 | 0.0 | 0.00 | 0.00 | 0.00 | 67 | 1031.8 |
| 20260505054649 | 60 | 200 | 0.0 | 1.0 | 0.00 | 0.00 | 0.00 | 68 | 1032.1 |
| 20260505054147 | 60 | 217 | 0.0 | 1.0 | 0.00 | 0.00 | 0.00 | 68 | 1031.8 |
| 20260505053645 | 60 | 172 | 0.0 | 1.0 | 0.00 | 0.00 | 0.00 | 69 | 1032.0 |
| 20260505053141 | 60 | 162 | 0.0 | 0.0 | 0.00 | 0.00 | 0.00 | 69 | 1032.1 |
| 20260505052638 | 60 | 162 | 0.0 | 0.0 | 0.00 | 0.00 | 0.00 | 68 | 1032.2 |
| 20260505052135 | 60 | 162 | 0.0 | 0.0 | 0.00 | 0.00 | 0.00 | 67 | 1032.1 |
| 20260505051632 | 61 | 162 | 0.0 | 0.0 | 0.00 | 0.00 | 0.00 | 67 | 1032.1 |
| 20260505051130 | 61 | 147 | 0.0 | 1.0 | 0.00 | 0.00 | 0.00 | 66 | 1032.4 |
| 20260505050628 | 61 | 203 | 0.0 | 0.0 | 0.00 | 0.00 | 0.00 | 66 | 1032.4 |
| 20260505050126 | 62 | 203 | 0.0 | 0.0 | 0.00 | 0.00 | 0.00 | 66 | 1032.3 |
| 20260505041555 | 63 | 227 | 3.0 | 3.0 | 0.00 | 0.00 | 0.00 | 61 | 1032.0 |
| 20260505041053 | 63 | 210 | 3.0 | 3.0 | 0.00 | 0.00 | 0.00 | 61 | 1032.1 |
| 20260505040550 | 64 | 218 | 1.0 | 2.0 | 0.00 | 0.00 | 0.00 | 61 | 1032.1 |
| 20260505040047 | 64 | 240 | 3.0 | 6.0 | 0.00 | 0.00 | 0.00 | 60 | 1032.1 |
| 20260505035543 | 64 | 182 | 0.0 | 2.0 | 0.00 | 0.00 | 0.00 | 60 | 1032.0 |
| 20260505035040 | 64 | 215 | 2.0 | 3.0 | 0.00 | 0.00 | 0.00 | 60 | 1032.1 |
| 20260505034536 | 64 | 99 | 1.0 | 1.0 | 0.00 | 0.00 | 0.00 | 61 | 1032.1 |
| 20260505034033 | 64 | 254 | 1.0 | 5.0 | 0.00 | 0.00 | 0.00 | 60 | 1032.0 |
| 20260505033530 | 64 | 189 | 1.0 | 3.0 | 0.00 | 0.00 | 0.00 | 60 | 1032.2 |
| 20260505033028 | 64 | 231 | 2.0 | 7.0 | 0.00 | 0.00 | 0.00 | 60 | 1032.3 |
| 20260505032526 | 65 | 182 | 0.0 | 2.0 | 0.00 | 0.00 | 0.00 | 59 | 1032.2 |
| 20260505032022 | 65 | 196 | 1.0 | 5.0 | 0.00 | 0.00 | 0.00 | 59 | 1032.0 |
| 20260505031520 | 65 | 197 | 1.0 | 5.0 | 0.00 | 0.00 | 0.00 | 59 | 1032.2 |
| 20260505031016 | 65 | 239 | 2.0 | 3.0 | 0.00 | 0.00 | 0.00 | 58 | 1032.1 |
| 20260505030513 | 65 | 192 | 3.0 | 8.0 | 0.00 | 0.00 | 0.00 | 58 | 1032.3 |
| 20260505030009 | 65 | 249 | 3.0 | 6.0 | 0.00 | 0.00 | 0.00 | 58 | 1032.1 |
| 20260505025505 | 66 | 193 | 0.0 | 3.0 | 0.00 | 0.00 | 0.00 | 58 | 1032.0 |
| 20260505025004 | 66 | 250 | 1.0 | 2.0 | 0.00 | 0.00 | 0.00 | 58 | 1032.1 |
| 20260505024500 | 66 | 160 | 0.0 | 1.0 | 0.00 | 0.00 | 0.00 | 57 | 1032.3 |
| 20260505023957 | 66 | 260 | 1.0 | 1.0 | 0.00 | 0.00 | 0.00 | 58 | 1032.3 |
| 20260505023454 | 67 | 164 | 0.0 | 1.0 | 0.00 | 0.00 | 0.00 | 57 | 1032.1 |
| 20260505022952 | 67 | 65 | 2.0 | 9.0 | 0.00 | 0.00 | 0.00 | 57 | 1032.0 |
| 20260505022449 | 67 | 216 | 2.0 | 5.0 | 0.00 | 0.00 | 0.00 | 57 | 1032.1 |
| 20260505021947 | 67 | 258 | 2.0 | 2.0 | 0.00 | 0.00 | 0.00 | 56 | 1032.0 |
| 20260505021443 | 67 | 188 | 3.0 | 5.0 | 0.00 | 0.00 | 0.00 | 56 | 1031.8 |
| 20260505020938 | 67 | 222 | 5.0 | 8.0 | 0.00 | 0.00 | 0.00 | 56 | 1032.0 |
| 20260505020434 | 68 | 237 | 2.0 | 2.0 | 0.00 | 0.00 | 0.00 | 56 | 1032.0 |
| 20260505015931 | 68 | 192 | 1.0 | 5.0 | 0.00 | 0.00 | 0.00 | 56 | 1031.8 |
| 20260505015428 | 68 | 49 | 2.0 | 3.0 | 0.00 | 0.00 | 0.00 | 55 | 1031.9 |
| 20260505014926 | 68 | 11 | 2.0 | 2.0 | 0.00 | 0.00 | 0.00 | 54 | 1032.0 |
| 20260505014422 | 68 | 130 | 1.0 | 3.0 | 0.00 | 0.00 | 0.00 | 53 | 1031.7 |
| 20260505013919 | 68 | 146 | 1.0 | 3.0 | 0.00 | 0.00 | 0.00 | 52 | 1031.9 |
| 20260505013416 | 68 | 162 | 1.0 | 5.0 | 0.00 | 0.00 | 0.00 | 52 | 1031.7 |
| 20260505012914 | 68 | 311 | 4.0 | 6.0 | 0.00 | 0.00 | 0.00 | 50 | 1031.5 |
| 20260505012412 | 68 | 194 | 3.0 | 7.0 | 0.00 | 0.00 | 0.00 | 49 | 1031.4 |
| 20260505011908 | 67 | 5 | 2.0 | 3.0 | 0.00 | 0.00 | 0.00 | 48 | 1031.2 |
| 20260505011405 | 68 | 160 | 0.0 | 1.0 | 0.00 | 0.00 | 0.00 | 50 | 1031.2 |
| 20260505010901 | 68 | 172 | 0.0 | 0.0 | 0.00 | 0.00 | 0.00 | 47 | 1031.1 |
| 20260505010357 | 68 | 171 | 0.0 | 0.0 | 0.00 | 0.00 | 0.00 | 44 | 1031.1 |
| 20260505005853 | 68 | 182 | 1.0 | 2.0 | 0.00 | 0.00 | 0.00 | 45 | 1031.0 |
| 20260505005350 | 68 | 200 | 0.0 | 1.0 | 0.00 | 0.00 | 0.00 | 46 | 1030.9 |
| 20260505004848 | 68 | 199 | 1.0 | 1.0 | 0.00 | 0.00 | 0.00 | 46 | 1030.7 |
| 20260505004344 | 68 | 181 | 0.0 | 0.0 | 0.00 | 0.00 | 0.00 | 46 | 1030.8 |
| 20260505003841 | 68 | 181 | 0.0 | 0.0 | 0.00 | 0.00 | 0.00 | 46 | 1030.9 |
| 20260505003338 | 68 | 181 | 0.0 | 0.0 | 0.00 | 0.00 | 0.00 | 46 | 1030.8 |
| 20260505002834 | 68 | 143 | 0.0 | 0.0 | 0.00 | 0.00 | 0.00 | 45 | 1030.6 |
| 20260505002331 | 69 | 144 | 0.0 | 0.0 | 0.00 | 0.00 | 0.00 | 45 | 1030.8 |
| 20260505001830 | 70 | 144 | 0.0 | 0.0 | 0.00 | 0.00 | 0.00 | 44 | 1030.6 |
| 20260505001326 | 70 | 143 | 0.0 | 1.0 | 0.00 | 0.00 | 0.00 | 44 | 1030.7 |
| 20260505000824 | 71 | 159 | 0.0 | 1.0 | 0.00 | 0.00 | 0.00 | 43 | 1030.5 |
| 20260505000321 | 71 | 158 | 0.0 | 0.0 | 0.00 | 0.00 | 0.00 | 42 | 1030.7 |
| 20260504235818 | 72 | 184 | 1.0 | 1.0 | 0.00 | 0.00 | 0.00 | 41 | 1030.7 |
| 20260504235315 | 72 | 188 | 1.0 | 2.0 | 0.00 | 0.00 | 0.00 | 40 | 1030.6 |
| 20260504234811 | 72 | 195 | 0.0 | 0.0 | 0.00 | 0.00 | 0.00 | 41 | 1030.7 |
| 20260504234309 | 73 | 117 | 1.0 | 1.0 | 0.00 | 0.00 | 0.00 | 38 | 1030.4 |
| 20260504233805 | 73 | 177 | 0.0 | 0.0 | 0.00 | 0.00 | 0.00 | 40 | 1030.4 |
| 20260504233301 | 74 | 169 | 1.0 | 1.0 | 0.00 | 0.00 | 0.00 | 38 | 1030.2 |
| 20260504232758 | 74 | 188 | 1.0 | 1.0 | 0.00 | 0.00 | 0.00 | 37 | 1030.2 |
| 20260504232255 | 75 | 167 | 0.0 | 1.0 | 0.00 | 0.00 | 0.00 | 37 | 1030.3 |
| 20260504231752 | 75 | 193 | 0.0 | 1.0 | 0.00 | 0.00 | 0.00 | 34 | 1030.3 |
| 20260504231248 | 76 | 214 | 3.0 | 3.0 | 0.00 | 0.00 | 0.00 | 34 | 1030.2 |
| 20260504230744 | 76 | 88 | 1.0 | 2.0 | 0.00 | 0.00 | 0.00 | 34 | 1030.2 |
| 20260504230243 | 76 | 181 | 0.0 | 1.0 | 0.00 | 0.00 | 0.00 | 34 | 1030.1 |
| 20260504225741 | 77 | 142 | 1.0 | 2.0 | 0.00 | 0.00 | 0.00 | 34 | 1030.1 |
| 20260504225237 | 77 | 196 | 2.0 | 2.0 | 0.00 | 0.00 | 0.00 | 36 | 1030.0 |
| 20260504224734 | 78 | 192 | 1.0 | 6.0 | 0.00 | 0.00 | 0.00 | 31 | 1030.1 |
| 20260504224232 | 78 | 171 | 0.0 | 1.0 | 0.00 | 0.00 | 0.00 | 35 | 1030.0 |
| 20260504223728 | 79 | 168 | 1.0 | 1.0 | 0.00 | 0.00 | 0.00 | 35 | 1030.1 |
| 20260504223223 | 79 | 160 | 1.0 | 1.0 | 0.00 | 0.00 | 0.00 | 32 | 1030.0 |
| 20260504222721 | 80 | 36 | 1.0 | 2.0 | 0.00 | 0.00 | 0.00 | 32 | 1030.1 |
| 20260504222218 | 80 | 196 | 2.0 | 5.0 | 0.00 | 0.00 | 0.00 | 31 | 1030.1 |
| 20260504221715 | 81 | 227 | 1.0 | 1.0 | 0.00 | 0.00 | 0.00 | 29 | 1029.9 |
| 20260504221212 | 81 | 205 | 1.0 | 5.0 | 0.00 | 0.00 | 0.00 | 27 | 1030.0 |
| 20260504220708 | 81 | 269 | 2.0 | 3.0 | 0.00 | 0.00 | 0.00 | 27 | 1030.1 |
| 20260504220206 | 80 | 187 | 1.0 | 2.0 | 0.00 | 0.00 | 0.00 | 26 | 1030.1 |
| 20260504215702 | 80 | 245 | 4.0 | 7.0 | 0.00 | 0.00 | 0.00 | 26 | 1029.9 |
| 20260504215200 | 81 | 255 | 1.0 | 3.0 | 0.00 | 0.00 | 0.00 | 26 | 1030.0 |
| 20260504214655 | 81 | 212 | 4.0 | 8.0 | 0.00 | 0.00 | 0.00 | 26 | 1030.1 |
| 20260504214152 | 81 | 220 | 3.0 | 3.0 | 0.00 | 0.00 | 0.00 | 26 | 1030.2 |
| 20260504213649 | 82 | 273 | 2.0 | 6.0 | 0.00 | 0.00 | 0.00 | 25 | 1030.2 |
| 20260504213145 | 82 | 199 | 1.0 | 3.0 | 0.00 | 0.00 | 0.00 | 24 | 1030.0 |
| 20260504212642 | 81 | 229 | 3.0 | 5.0 | 0.00 | 0.00 | 0.00 | 26 | 1030.3 |
| 20260504212138 | 81 | 231 | 1.0 | 3.0 | 0.00 | 0.00 | 0.00 | 25 | 1030.2 |
| 20260504211636 | 82 | 267 | 4.0 | 6.0 | 0.00 | 0.00 | 0.00 | 24 | 1030.2 |
| 20260504211132 | 82 | 245 | 3.0 | 3.0 | 0.00 | 0.00 | 0.00 | 24 | 1030.1 |
| 20260504210630 | 82 | 350 | 2.0 | 2.0 | 0.00 | 0.00 | 0.00 | 25 | 1030.2 |
| 20260504210126 | 82 | 206 | 1.0 | 2.0 | 0.00 | 0.00 | 0.00 | 25 | 1030.2 |
| 20260504205624 | 81 | 257 | 1.0 | 2.0 | 0.00 | 0.00 | 0.00 | 25 | 1030.2 |
| 20260504205121 | 81 | 202 | 3.0 | 3.0 | 0.00 | 0.00 | 0.00 | 25 | 1030.4 |
| 20260504204620 | 81 | 211 | 1.0 | 6.0 | 0.00 | 0.00 | 0.00 | 25 | 1030.3 |
| 20260504204118 | 81 | 195 | 4.0 | 6.0 | 0.00 | 0.00 | 0.00 | 23 | 1030.6 |
| 20260504203616 | 81 | 39 | 3.0 | 7.0 | 0.00 | 0.00 | 0.00 | 25 | 1030.6 |
| 20260504203114 | 81 | 238 | 2.0 | 6.0 | 0.00 | 0.00 | 0.00 | 26 | 1030.5 |
| 20260504202609 | 80 | 223 | 2.0 | 2.0 | 0.00 | 0.00 | 0.00 | 26 | 1030.5 |
| 20260504202106 | 80 | 19 | 4.0 | 6.0 | 0.00 | 0.00 | 0.00 | 25 | 1030.6 |
| 20260504201602 | 81 | 232 | 2.0 | 7.0 | 0.00 | 0.00 | 0.00 | 26 | 1030.7 |
| 20260504201100 | 81 | 233 | 2.0 | 3.0 | 0.00 | 0.00 | 0.00 | 27 | 1030.6 |
| 20260504200556 | 81 | 238 | 3.0 | 6.0 | 0.00 | 0.00 | 0.00 | 24 | 1030.8 |
| 20260504200053 | 81 | 31 | 2.0 | 3.0 | 0.00 | 0.00 | 0.00 | 25 | 1031.1 |
| 20260504195550 | 81 | 172 | 1.0 | 6.0 | 0.00 | 0.00 | 0.00 | 25 | 1031.0 |
| 20260504195046 | 80 | 192 | 1.0 | 3.0 | 0.00 | 0.00 | 0.00 | 25 | 1031.0 |
| 20260504194543 | 81 | 354 | 3.0 | 7.0 | 0.00 | 0.00 | 0.00 | 25 | 1031.0 |
| 20260504194038 | 81 | 334 | 3.0 | 3.0 | 0.00 | 0.00 | 0.00 | 28 | 1030.9 |
| 20260504193535 | 80 | 197 | 3.0 | 5.0 | 0.00 | 0.00 | 0.00 | 25 | 1030.6 |
| 20260504193034 | 80 | 342 | 0.0 | 5.0 | 0.00 | 0.00 | 0.00 | 25 | 1031.0 |
| 20260504192532 | 80 | 253 | 3.0 | 5.0 | 0.00 | 0.00 | 0.00 | 27 | 1031.0 |
| 20260504192030 | 80 | 238 | 1.0 | 3.0 | 0.00 | 0.00 | 0.00 | 28 | 1031.0 |
| 20260504191527 | 80 | 229 | 4.0 | 6.0 | 0.00 | 0.00 | 0.00 | 28 | 1031.3 |
| 20260504191023 | 80 | 256 | 5.0 | 7.0 | 0.00 | 0.00 | 0.00 | 27 | 1031.2 |
| 20260504190519 | 79 | 240 | 2.0 | 6.0 | 0.00 | 0.00 | 0.00 | 26 | 1031.5 |
| 20260504190015 | 79 | 215 | 1.0 | 3.0 | 0.00 | 0.00 | 0.00 | 29 | 1031.4 |
| 20260504185513 | 79 | 236 | 2.0 | 7.0 | 0.00 | 0.00 | 0.00 | 27 | 1031.6 |
| 20260504185009 | 78 | 226 | 3.0 | 7.0 | 0.00 | 0.00 | 0.00 | 29 | 1031.4 |
| 20260504184504 | 78 | 263 | 2.0 | 2.0 | 0.00 | 0.00 | 0.00 | 31 | 1031.5 |
| 20260504184000 | 78 | 186 | 1.0 | 7.0 | 0.00 | 0.00 | 0.00 | 29 | 1031.3 |
| 20260504183457 | 77 | 230 | 4.0 | 6.0 | 0.00 | 0.00 | 0.00 | 29 | 1031.3 |
| 20260504182955 | 77 | 220 | 4.0 | 13.0 | 0.00 | 0.00 | 0.00 | 29 | 1031.6 |
| 20260504182452 | 77 | 222 | 3.0 | 5.0 | 0.00 | 0.00 | 0.00 | 26 | 1031.6 |
| 20260504181949 | 78 | 228 | 3.0 | 6.0 | 0.00 | 0.00 | 0.00 | 31 | 1031.7 |
| 20260504181446 | 77 | 269 | 3.0 | 10.0 | 0.00 | 0.00 | 0.00 | 30 | 1031.5 |
| 20260504180945 | 77 | 173 | 2.0 | 5.0 | 0.00 | 0.00 | 0.00 | 29 | 1031.5 |
| 20260504180443 | 76 | 232 | 3.0 | 7.0 | 0.00 | 0.00 | 0.00 | 31 | 1031.6 |
| 20260504175941 | 76 | 224 | 2.0 | 7.0 | 0.00 | 0.00 | 0.00 | 31 | 1031.9 |
| 20260504175438 | 77 | 250 | 2.0 | 5.0 | 0.00 | 0.00 | 0.00 | 30 | 1031.8 |
| 20260504174936 | 76 | 203 | 2.0 | 3.0 | 0.00 | 0.00 | 0.00 | 31 | 1031.8 |
| 20260504174433 | 76 | 219 | 3.0 | 9.0 | 0.00 | 0.00 | 0.00 | 31 | 1032.0 |
| 20260504173930 | 77 | 225 | 4.0 | 6.0 | 0.00 | 0.00 | 0.00 | 30 | 1032.2 |
| 20260504173426 | 76 | 236 | 2.0 | 2.0 | 0.00 | 0.00 | 0.00 | 33 | 1032.0 |
| 20260504172924 | 75 | 188 | 1.0 | 2.0 | 0.00 | 0.00 | 0.00 | 33 | 1032.1 |
| 20260504172420 | 75 | 232 | 5.0 | 6.0 | 0.00 | 0.00 | 0.00 | 34 | 1032.3 |
| 20260504171916 | 76 | 251 | 4.0 | 7.0 | 0.00 | 0.00 | 0.00 | 32 | 1032.5 |
| 20260504171414 | 76 | 209 | 3.0 | 9.0 | 0.00 | 0.00 | 0.00 | 31 | 1032.4 |
| 20260504170911 | 75 | 220 | 1.0 | 5.0 | 0.00 | 0.00 | 0.00 | 34 | 1032.2 |
| 20260504170407 | 75 | 235 | 3.0 | 5.0 | 0.00 | 0.00 | 0.00 | 33 | 1032.5 |
| 20260504160326 | 72 | 160 | 1.0 | 3.0 | 0.00 | 0.00 | 0.00 | 42 | 1033.0 |
| 20260504150751 | 69 | 217 | 2.0 | 2.0 | 0.00 | 0.00 | 0.00 | 50 | 1033.2 |
| 20260504150247 | 68 | 222 | 3.0 | 3.0 | 0.00 | 0.00 | 0.00 | 48 | 1033.1 |
| 20260504141217 | 64 | 210 | 5.0 | 6.0 | 0.00 | 0.00 | 0.00 | 54 | 1033.6 |
| 20260504140714 | 64 | 249 | 2.0 | 3.0 | 0.00 | 0.00 | 0.00 | 55 | 1033.3 |
| 20260504140209 | 64 | 199 | 1.0 | 5.0 | 0.00 | 0.00 | 0.00 | 57 | 1033.3 |
| 20260504130638 | 58 | 218 | 0.0 | 1.0 | 0.00 | 0.00 | 0.00 | 75 | 1033.6 |
| 20260504130134 | 57 | 219 | 2.0 | 2.0 | 0.00 | 0.00 | 0.00 | 77 | 1033.6 |
| 20260504110525 | 44 | 44 | 0.0 | 0.0 | 0.00 | 0.00 | 0.00 | 96 | 1033.7 |
| 20260504100442 | 44 | 44 | 0.0 | 0.0 | 0.00 | 0.00 | 0.00 | 95 | 1033.5 |